RYR8YN EDNY-LEAL

Flight info

Callsign RYR8YN
Flight time 2h 12m
Altitude 35000
Route TRA LUTIX BENOT NEMOS GEVEA INCUS BALSI RETNO TUPOX MTG DIVKO VATIR N852 PIVUS Z237 OKITI M603 GERVU
Aircraft B738/M-VGDW/C

Departure

Time 2026-04-12 08:30
Airport Bodensee Airport Friedrichshafen (EDNY)

Arrival

Time 2026-04-12 10:42
Airport Alicante-Elche Miguel Hernández Airport (LEAL)
Time Latitude Longitude Altitude Speed Heading
2026-04-12 08:18 47.67320 9.52249 1366 ft 0 kts 150°
2026-04-12 08:23 47.67321 9.52249 1366 ft 0 kts 150°
2026-04-12 08:23 47.67328 9.52243 1366 ft 2 kts 141°
2026-04-12 08:24 47.67338 9.52226 1366 ft 2 kts 120°
2026-04-12 08:24 47.67343 9.52205 1366 ft 2 kts 101°
2026-04-12 08:24 47.67344 9.52183 1366 ft 2 kts 83°
2026-04-12 08:24 47.67340 9.52163 1366 ft 1 kts 64°
2026-04-12 08:25 47.67337 9.52154 1366 ft 1 kts 58°
2026-04-12 08:25 47.67336 9.52152 1366 ft 0 kts 59°
2026-04-12 08:27 47.67339 9.52160 1366 ft 2 kts 59°
2026-04-12 08:27 47.67349 9.52184 1366 ft 4 kts 60°
2026-04-12 08:28 47.67370 9.52238 1367 ft 7 kts 60°
2026-04-12 08:28 47.67395 9.52304 1367 ft 8 kts 60°
2026-04-12 08:28 47.67429 9.52388 1365 ft 10 kts 60°
2026-04-12 08:28 47.67471 9.52496 1363 ft 13 kts 60°
2026-04-12 08:29 47.67521 9.52582 1363 ft 10 kts 15°
2026-04-12 08:29 47.67585 9.52553 1364 ft 9 kts 329°
2026-04-12 08:29 47.67632 9.52489 1366 ft 9 kts 285°
2026-04-12 08:29 47.67557 9.52244 1369 ft 53 kts 240°
2026-04-12 08:30 47.67262 9.51486 1358 ft 121 kts 240°
2026-04-12 08:30 47.66748 9.50167 1416 ft 160 kts 240°
2026-04-12 08:30 47.66161 9.48780 1814 ft 162 kts 234°
2026-04-12 08:30 47.65459 9.47444 2381 ft 179 kts 239°
2026-04-12 08:31 47.64925 9.45719 2750 ft 193 kts 249°
2026-04-12 08:31 47.64341 9.43836 3305 ft 206 kts 244°
2026-04-12 08:31 47.63699 9.41876 3776 ft 221 kts 250°
2026-04-12 08:31 47.63469 9.39589 4223 ft 235 kts 278°
2026-04-12 08:32 47.64019 9.37305 4839 ft 243 kts 302°
2026-04-12 08:32 47.65109 9.35365 5464 ft 252 kts 321°
2026-04-12 08:32 47.66596 9.33929 6171 ft 259 kts 331°
2026-04-12 08:32 47.68196 9.32657 6889 ft 266 kts 332°
2026-04-12 08:33 47.69854 9.31392 7539 ft 275 kts 336°
2026-04-12 08:33 47.71646 9.30335 8193 ft 284 kts 339°
2026-04-12 08:33 47.73528 9.29318 8869 ft 291 kts 339°
2026-04-12 08:33 47.75443 9.28301 9604 ft 295 kts 339°
2026-04-12 08:34 47.77347 9.27107 10230 ft 303 kts 329°
2026-04-12 08:34 47.78970 9.25158 10833 ft 306 kts 305°
2026-04-12 08:34 47.80098 9.22474 11427 ft 311 kts 294°
2026-04-12 08:34 47.81104 9.19604 12022 ft 320 kts 293°
2026-04-12 08:35 47.82107 9.16620 12643 ft 327 kts 289°
2026-04-12 08:35 47.82822 9.13414 13252 ft 330 kts 278°
2026-04-12 08:35 47.82932 9.10043 13839 ft 331 kts 260°
2026-04-12 08:35 47.82376 9.06706 14429 ft 335 kts 250°
2026-04-12 08:36 47.81641 9.03417 15042 ft 341 kts 249°
2026-04-12 08:36 47.80886 9.00022 15619 ft 347 kts 250°
2026-04-12 08:36 47.80157 8.96616 16217 ft 352 kts 251°
2026-04-12 08:36 47.79420 8.93125 16688 ft 361 kts 251°
2026-04-12 08:37 47.78662 8.89528 17139 ft 370 kts 251°
2026-04-12 08:37 47.77884 8.85839 17586 ft 378 kts 251°
2026-04-12 08:37 47.77090 8.82078 18032 ft 386 kts 251°
2026-04-12 08:37 47.76291 8.78288 18484 ft 392 kts 251°
2026-04-12 08:38 47.75468 8.74411 19138 ft 395 kts 251°
2026-04-12 08:38 47.74640 8.70519 19778 ft 396 kts 250°
2026-04-12 08:38 47.73810 8.66628 20437 ft 397 kts 250°
2026-04-12 08:38 47.72990 8.62778 21072 ft 398 kts 250°
2026-04-12 08:39 47.72154 8.58846 21734 ft 398 kts 250°
2026-04-12 08:39 47.71330 8.54977 22297 ft 400 kts 250°
2026-04-12 08:39 47.70489 8.51045 22847 ft 401 kts 250°
2026-04-12 08:39 47.69605 8.47098 23411 ft 402 kts 248°
2026-04-12 08:40 47.68528 8.43340 23931 ft 402 kts 241°
2026-04-12 08:40 47.67137 8.39762 24458 ft 402 kts 236°
2026-04-12 08:40 47.65566 8.36335 24990 ft 402 kts 233°
2026-04-12 08:40 47.63932 8.33003 25526 ft 403 kts 232°
2026-04-12 08:41 47.62253 8.29624 26073 ft 404 kts 232°
2026-04-12 08:41 47.60614 8.26326 26606 ft 405 kts 232°
2026-04-12 08:41 47.58927 8.22928 27158 ft 405 kts 232°
2026-04-12 08:41 47.57267 8.19572 27706 ft 404 kts 232°
2026-04-12 08:42 47.55615 8.16219 28248 ft 404 kts 233°
2026-04-12 08:42 47.53949 8.12823 28749 ft 404 kts 233°
2026-04-12 08:42 47.52316 8.09483 29243 ft 404 kts 233°
2026-04-12 08:42 47.50660 8.06092 29690 ft 405 kts 233°
2026-04-12 08:43 47.49025 8.02749 30133 ft 405 kts 233°
2026-04-12 08:43 47.47371 7.99373 30578 ft 405 kts 233°
2026-04-12 08:43 47.45725 7.96013 31013 ft 405 kts 233°
2026-04-12 08:43 47.44089 7.92680 31475 ft 404 kts 233°
2026-04-12 08:44 47.42441 7.89330 32022 ft 401 kts 233°
2026-04-12 08:44 47.40831 7.86063 32568 ft 397 kts 234°
2026-04-12 08:44 47.39203 7.82773 33124 ft 393 kts 233°
2026-04-12 08:44 47.37616 7.79577 33670 ft 389 kts 233°
2026-04-12 08:45 47.36019 7.76360 34227 ft 385 kts 234°
2026-04-12 08:45 47.34454 7.73203 34538 ft 386 kts 234°
2026-04-12 08:45 47.32871 7.70012 34705 ft 388 kts 234°
2026-04-12 08:45 47.31274 7.66794 34817 ft 386 kts 234°
2026-04-12 08:46 47.29715 7.63656 34923 ft 384 kts 234°
2026-04-12 08:46 47.28136 7.60479 35003 ft 384 kts 234°
2026-04-12 08:47 47.23438 7.51042 35019 ft 381 kts 233°
2026-04-12 08:47 47.20303 7.44762 35017 ft 385 kts 234°
2026-04-12 08:48 47.17152 7.38470 35019 ft 382 kts 233°
2026-04-12 08:48 47.13934 7.32267 35015 ft 383 kts 231°
2026-04-12 08:49 47.10597 7.26168 35019 ft 383 kts 231°
2026-04-12 08:49 47.07267 7.20107 35014 ft 382 kts 231°
2026-04-12 08:50 47.03943 7.14033 35013 ft 383 kts 231°
2026-04-12 08:50 47.00632 7.07984 35012 ft 383 kts 231°
2026-04-12 08:51 46.97308 7.01906 35013 ft 381 kts 230°
2026-04-12 08:51 46.94002 6.95880 35009 ft 382 kts 230°
2026-04-12 08:52 46.90559 6.89999 35008 ft 382 kts 224°
2026-04-12 08:52 46.86544 6.84920 35003 ft 385 kts 219°
2026-04-12 08:53 46.82370 6.80078 35002 ft 383 kts 219°
2026-04-12 08:53 46.78191 6.75201 35004 ft 384 kts 220°
2026-04-12 08:54 46.74063 6.70335 35001 ft 384 kts 220°
2026-04-12 08:54 46.69907 6.65428 34998 ft 385 kts 220°
2026-04-12 08:55 46.65789 6.60552 34997 ft 385 kts 220°
2026-04-12 08:55 46.61644 6.55652 34996 ft 384 kts 220°
2026-04-12 08:56 46.57500 6.50763 35001 ft 384 kts 220°
2026-04-12 08:56 46.53377 6.45908 34998 ft 385 kts 219°
2026-04-12 08:57 46.49203 6.41015 34997 ft 384 kts 220°
2026-04-12 08:57 46.45074 6.36185 34992 ft 384 kts 219°
2026-04-12 08:58 46.40899 6.31306 34992 ft 386 kts 219°
2026-04-12 08:58 46.36746 6.26469 34996 ft 384 kts 219°
2026-04-12 08:59 46.32572 6.21631 34999 ft 386 kts 219°
2026-04-12 08:59 46.28368 6.16807 35004 ft 387 kts 217°
2026-04-12 09:00 46.23667 6.13057 35005 ft 392 kts 200°
2026-04-12 09:00 46.18320 6.11480 35001 ft 396 kts 192°
2026-04-12 09:01 46.12881 6.10356 34999 ft 394 kts 191°
2026-04-12 09:01 46.07450 6.09233 34994 ft 395 kts 192°
2026-04-12 09:02 46.02015 6.08067 34989 ft 394 kts 192°
2026-04-12 09:02 45.96630 6.06889 34988 ft 395 kts 192°
2026-04-12 09:03 45.91209 6.05697 34975 ft 395 kts 192°
2026-04-12 09:03 45.85760 6.04499 34991 ft 395 kts 192°
2026-04-12 09:04 45.80383 6.03313 34987 ft 395 kts 192°
2026-04-12 09:04 45.74943 6.02101 34986 ft 397 kts 192°
2026-04-12 09:05 45.69501 6.00915 34983 ft 396 kts 192°
2026-04-12 09:05 45.64086 5.99699 34982 ft 396 kts 192°
2026-04-12 09:06 45.58629 5.98495 34981 ft 398 kts 191°
2026-04-12 09:06 45.53200 5.97319 34982 ft 395 kts 191°
2026-04-12 09:07 45.47734 5.96125 34976 ft 398 kts 192°
2026-04-12 09:07 45.42310 5.94615 34970 ft 399 kts 195°
2026-04-12 09:08 45.36903 5.92861 34968 ft 398 kts 195°
2026-04-12 09:08 45.31521 5.91114 34974 ft 399 kts 195°
2026-04-12 09:09 45.26126 5.89401 34976 ft 398 kts 194°
2026-04-12 09:09 45.20752 5.87717 34975 ft 398 kts 194°
2026-04-12 09:10 45.15366 5.86029 34979 ft 398 kts 194°
2026-04-12 09:10 45.09953 5.84363 34982 ft 398 kts 194°
2026-04-12 09:11 45.04539 5.82683 34981 ft 398 kts 194°
2026-04-12 09:11 44.99150 5.81024 34979 ft 398 kts 194°
2026-04-12 09:12 44.93745 5.79361 34981 ft 400 kts 194°
2026-04-12 09:12 44.88302 5.77687 34990 ft 400 kts 194°
2026-04-12 09:13 44.82871 5.76017 34975 ft 401 kts 194°
2026-04-12 09:13 44.77454 5.74367 34975 ft 399 kts 194°
2026-04-12 09:14 44.72027 5.72673 34965 ft 401 kts 194°
2026-04-12 09:14 44.66581 5.71018 34963 ft 401 kts 194°
2026-04-12 09:15 44.61132 5.69376 34956 ft 401 kts 193°
2026-04-12 09:15 44.55693 5.67732 34956 ft 400 kts 193°
2026-04-12 09:16 44.50236 5.66083 34944 ft 401 kts 193°
2026-04-12 09:16 44.44788 5.64439 34943 ft 402 kts 193°
2026-04-12 09:17 44.39349 5.62777 34944 ft 400 kts 194°
2026-04-12 09:17 44.34065 5.60414 34948 ft 402 kts 200°
2026-04-12 09:18 44.28862 5.57550 34941 ft 403 kts 202°
2026-04-12 09:18 44.23651 5.54627 34937 ft 403 kts 201°
2026-04-12 09:19 44.18465 5.51752 34932 ft 403 kts 201°
2026-04-12 09:19 44.13270 5.48875 34932 ft 402 kts 201°
2026-04-12 09:20 44.05393 5.44583 34918 ft 407 kts 201°
2026-04-12 09:21 43.97492 5.40307 34918 ft 406 kts 201°
2026-04-12 09:21 43.92262 5.37484 34913 ft 406 kts 201°
2026-04-12 09:22 43.87008 5.34644 34911 ft 405 kts 200°
2026-04-12 09:22 43.81737 5.31792 34914 ft 407 kts 200°
2026-04-12 09:23 43.76472 5.28960 34913 ft 407 kts 200°
2026-04-12 09:23 43.71203 5.26137 34913 ft 407 kts 200°
2026-04-12 09:24 43.65928 5.23311 34914 ft 409 kts 199°
2026-04-12 09:24 43.60615 5.20468 34916 ft 408 kts 200°
2026-04-12 09:25 43.55330 5.17645 34916 ft 409 kts 199°
2026-04-12 09:25 43.50031 5.14820 34917 ft 408 kts 200°
2026-04-12 09:26 43.44736 5.12000 34919 ft 411 kts 199°
2026-04-12 09:26 43.39461 5.08994 34921 ft 411 kts 205°
2026-04-12 09:27 43.34554 5.05014 34923 ft 413 kts 211°
2026-04-12 09:27 43.29807 5.00583 34915 ft 416 kts 212°
2026-04-12 09:28 43.25078 4.96078 34909 ft 416 kts 212°
2026-04-12 09:28 43.20327 4.91575 34912 ft 415 kts 212°
2026-04-12 09:29 43.15585 4.87109 34907 ft 416 kts 212°
2026-04-12 09:29 43.10812 4.82632 34898 ft 415 kts 211°
2026-04-12 09:30 43.06042 4.78177 34891 ft 418 kts 211°
2026-04-12 09:30 43.01130 4.74097 34898 ft 409 kts 206°
2026-04-12 09:31 42.96138 4.70391 34900 ft 411 kts 206°
2026-04-12 09:31 42.91105 4.66683 34900 ft 409 kts 206°
2026-04-12 09:32 42.86109 4.62958 34907 ft 411 kts 206°
2026-04-12 09:32 42.81106 4.59205 34914 ft 410 kts 206°
2026-04-12 09:33 42.76112 4.55456 34914 ft 410 kts 206°
2026-04-12 09:33 42.71126 4.51715 34912 ft 412 kts 206°
2026-04-12 09:34 42.66117 4.47957 34910 ft 411 kts 206°
2026-04-12 09:34 42.61112 4.44216 34906 ft 412 kts 206°
2026-04-12 09:35 42.56132 4.40493 34905 ft 411 kts 206°
2026-04-12 09:35 42.51109 4.36749 34905 ft 410 kts 206°
2026-04-12 09:36 42.46133 4.33041 34905 ft 410 kts 205°
2026-04-12 09:36 42.41122 4.29313 34903 ft 413 kts 205°
2026-04-12 09:37 42.36085 4.25578 34903 ft 413 kts 205°
2026-04-12 09:37 42.31086 4.21875 34906 ft 413 kts 205°
2026-04-12 09:38 42.26031 4.18135 34902 ft 412 kts 205°
2026-04-12 09:38 42.21033 4.14448 34903 ft 412 kts 205°
2026-04-12 09:39 42.15976 4.10727 34904 ft 414 kts 205°
2026-04-12 09:39 42.10932 4.07021 34904 ft 413 kts 205°
2026-04-12 09:40 42.05928 4.03349 34906 ft 411 kts 205°
2026-04-12 09:40 42.00902 3.99667 34903 ft 410 kts 205°
2026-04-12 09:41 41.95878 3.95995 34903 ft 414 kts 205°
2026-04-12 09:41 41.90832 3.92333 34894 ft 415 kts 204°
2026-04-12 09:42 41.85705 3.88843 34899 ft 413 kts 203°
2026-04-12 09:42 41.80550 3.85427 34894 ft 415 kts 203°
2026-04-12 09:43 41.70254 3.78563 34887 ft 413 kts 203°
2026-04-12 09:44 41.65125 3.75135 34894 ft 415 kts 203°
2026-04-12 09:44 41.59975 3.71698 34879 ft 415 kts 202°
2026-04-12 09:45 41.54714 3.68200 34878 ft 416 kts 203°
2026-04-12 09:45 41.49474 3.64714 34879 ft 414 kts 203°
2026-04-12 09:46 41.44257 3.61249 34872 ft 416 kts 203°
2026-04-12 09:46 41.39059 3.57808 34860 ft 417 kts 202°
2026-04-12 09:47 41.33844 3.54361 34867 ft 417 kts 203°
2026-04-12 09:47 41.28658 3.50935 34865 ft 417 kts 203°
2026-04-12 09:48 41.23434 3.47493 34874 ft 419 kts 203°
2026-04-12 09:48 41.18226 3.44072 34870 ft 417 kts 202°
2026-04-12 09:49 41.12842 3.41014 34870 ft 418 kts 198°
2026-04-12 09:49 41.07322 3.38274 34867 ft 418 kts 197°
2026-04-12 09:50 41.01802 3.35525 34865 ft 419 kts 197°
2026-04-12 09:50 40.96344 3.32757 34860 ft 417 kts 197°
2026-04-12 09:51 40.90852 3.29952 34859 ft 418 kts 197°
2026-04-12 09:51 40.85418 3.27175 34853 ft 420 kts 197°
2026-04-12 09:52 40.80001 3.24400 34853 ft 419 kts 197°
2026-04-12 09:52 40.74556 3.21616 34846 ft 421 kts 197°
2026-04-12 09:53 40.69053 3.18810 34847 ft 422 kts 197°
2026-04-12 09:53 40.63598 3.16026 34846 ft 422 kts 197°
2026-04-12 09:54 40.58213 3.12943 34839 ft 425 kts 202°
2026-04-12 09:54 40.52992 3.09219 34833 ft 428 kts 205°
2026-04-12 09:55 40.47819 3.05390 34829 ft 429 kts 205°
2026-04-12 09:55 40.42614 3.01585 34832 ft 429 kts 204°
2026-04-12 09:56 40.37374 2.97804 34832 ft 430 kts 204°
2026-04-12 09:56 40.32090 2.94022 34827 ft 433 kts 204°
2026-04-12 09:57 40.26830 2.90273 34824 ft 430 kts 204°
2026-04-12 09:57 40.21571 2.86523 34828 ft 433 kts 203°
2026-04-12 09:58 40.16241 2.82730 34829 ft 433 kts 204°
2026-04-12 09:58 40.10971 2.78994 34832 ft 432 kts 204°
2026-04-12 09:59 40.05686 2.75259 34827 ft 436 kts 204°
2026-04-12 09:59 40.00378 2.71503 34822 ft 436 kts 203°
2026-04-12 10:00 39.95040 2.67734 34826 ft 436 kts 203°
2026-04-12 10:00 39.89704 2.63972 34828 ft 437 kts 203°
2026-04-12 10:01 39.84352 2.60209 34819 ft 439 kts 203°
2026-04-12 10:01 39.78978 2.56444 34817 ft 438 kts 203°
2026-04-12 10:02 39.73633 2.52691 34817 ft 439 kts 204°
2026-04-12 10:02 39.68266 2.48937 34808 ft 441 kts 204°
2026-04-12 10:03 39.62888 2.45189 34809 ft 441 kts 203°
2026-04-12 10:03 39.57617 2.41327 34807 ft 433 kts 210°
2026-04-12 10:04 39.53295 2.35780 34812 ft 449 kts 230°
2026-04-12 10:04 39.49938 2.28944 34798 ft 452 kts 235°
2026-04-12 10:05 39.46793 2.21888 34799 ft 453 kts 236°
2026-04-12 10:05 39.43679 2.14855 34803 ft 453 kts 236°
2026-04-12 10:06 39.40531 2.07796 34799 ft 453 kts 236°
2026-04-12 10:06 39.37378 2.00791 34798 ft 453 kts 236°
2026-04-12 10:07 39.34187 1.93752 34799 ft 453 kts 236°
2026-04-12 10:07 39.30996 1.86730 34795 ft 455 kts 236°
2026-04-12 10:08 39.27828 1.79775 34785 ft 453 kts 236°
2026-04-12 10:08 39.24628 1.72776 34788 ft 454 kts 236°
2026-04-12 10:09 39.21417 1.65775 34795 ft 453 kts 236°
2026-04-12 10:09 39.18226 1.58844 34804 ft 453 kts 236°
2026-04-12 10:10 39.15012 1.51885 34808 ft 453 kts 236°
2026-04-12 10:10 39.11845 1.44873 34804 ft 454 kts 239°
2026-04-12 10:11 39.09260 1.37492 34648 ft 458 kts 245°
2026-04-12 10:11 39.08085 1.33650 34199 ft 457 kts 246°
2026-04-12 10:11 39.06963 1.29862 33750 ft 453 kts 246°
2026-04-12 10:11 39.05864 1.26117 33281 ft 448 kts 247°
2026-04-12 10:12 39.04770 1.22402 32770 ft 444 kts 247°
2026-04-12 10:12 39.03677 1.18726 32275 ft 440 kts 246°
2026-04-12 10:12 39.02579 1.15066 31760 ft 436 kts 247°
2026-04-12 10:12 39.01506 1.11500 31269 ft 432 kts 247°
2026-04-12 10:13 39.00422 1.07931 30769 ft 428 kts 248°
2026-04-12 10:13 38.99345 1.04392 30265 ft 424 kts 248°
2026-04-12 10:13 38.98282 1.00905 29775 ft 420 kts 248°
2026-04-12 10:13 38.97221 0.97442 29283 ft 417 kts 248°
2026-04-12 10:14 38.96155 0.93978 28784 ft 413 kts 248°
2026-04-12 10:14 38.95103 0.90576 28293 ft 409 kts 248°
2026-04-12 10:14 38.94064 0.87218 27807 ft 406 kts 248°
2026-04-12 10:14 38.93024 0.83861 27314 ft 403 kts 249°
2026-04-12 10:15 38.92002 0.80564 26828 ft 399 kts 249°
2026-04-12 10:15 38.90989 0.77296 26344 ft 396 kts 249°
2026-04-12 10:15 38.89976 0.74036 25860 ft 393 kts 249°
2026-04-12 10:15 38.88962 0.70769 25377 ft 390 kts 249°
2026-04-12 10:16 38.87964 0.67552 24900 ft 387 kts 249°
2026-04-12 10:16 38.86972 0.64367 24429 ft 383 kts 249°
2026-04-12 10:16 38.85979 0.61181 23956 ft 380 kts 249°
2026-04-12 10:16 38.85011 0.58082 23490 ft 377 kts 250°
2026-04-12 10:17 38.84025 0.54929 23026 ft 374 kts 250°
2026-04-12 10:17 38.83071 0.51887 22633 ft 370 kts 250°
2026-04-12 10:17 38.82111 0.48821 22300 ft 363 kts 250°
2026-04-12 10:17 38.81302 0.45790 21972 ft 356 kts 255°
2026-04-12 10:18 38.80642 0.42768 21644 ft 351 kts 257°
2026-04-12 10:18 38.80038 0.39734 21313 ft 345 kts 257°
2026-04-12 10:18 38.79453 0.36752 20983 ft 341 kts 257°
2026-04-12 10:18 38.78870 0.33819 20657 ft 336 kts 256°
2026-04-12 10:19 38.78289 0.30947 20330 ft 331 kts 256°
2026-04-12 10:19 38.77699 0.28076 19999 ft 328 kts 256°
2026-04-12 10:19 38.77122 0.25289 19676 ft 326 kts 256°
2026-04-12 10:19 38.76537 0.22481 19352 ft 326 kts 255°
2026-04-12 10:20 38.75949 0.19675 19066 ft 324 kts 255°
2026-04-12 10:20 38.75363 0.16898 18793 ft 323 kts 255°
2026-04-12 10:20 38.74781 0.14142 18520 ft 320 kts 255°
2026-04-12 10:20 38.74209 0.11422 18250 ft 320 kts 255°
2026-04-12 10:21 38.73631 0.08689 17978 ft 317 kts 255°
2026-04-12 10:21 38.73060 0.06007 17711 ft 312 kts 255°
2026-04-12 10:21 38.72487 0.03319 17430 ft 308 kts 255°
2026-04-12 10:21 38.71930 0.00710 17162 ft 307 kts 255°
2026-04-12 10:22 38.71373 -0.01924 16888 ft 307 kts 255°
2026-04-12 10:22 38.70817 -0.04568 16611 ft 305 kts 255°
2026-04-12 10:22 38.70253 -0.07173 16339 ft 304 kts 254°
2026-04-12 10:22 38.69698 -0.09748 16067 ft 304 kts 255°
2026-04-12 10:23 38.69138 -0.12371 15793 ft 303 kts 255°
2026-04-12 10:23 38.68591 -0.14932 15526 ft 301 kts 255°
2026-04-12 10:23 38.68038 -0.17529 15250 ft 300 kts 255°
2026-04-12 10:23 38.67491 -0.20094 14976 ft 299 kts 255°
2026-04-12 10:24 38.66949 -0.22617 14707 ft 294 kts 255°
2026-04-12 10:24 38.66410 -0.25126 14434 ft 290 kts 256°
2026-04-12 10:24 38.65878 -0.27604 14163 ft 287 kts 256°
2026-04-12 10:24 38.65356 -0.30022 13894 ft 286 kts 256°
2026-04-12 10:25 38.64815 -0.32493 13620 ft 286 kts 256°
2026-04-12 10:25 38.64283 -0.34934 13351 ft 286 kts 256°
2026-04-12 10:25 38.63749 -0.37377 13079 ft 285 kts 256°
2026-04-12 10:25 38.63228 -0.39772 12814 ft 282 kts 256°
2026-04-12 10:26 38.62703 -0.42194 12539 ft 279 kts 257°
2026-04-12 10:26 38.62189 -0.44604 12263 ft 279 kts 257°
2026-04-12 10:26 38.61676 -0.46974 11992 ft 278 kts 256°
2026-04-12 10:26 38.61150 -0.49343 11717 ft 275 kts 257°
2026-04-12 10:27 38.60634 -0.51697 11439 ft 273 kts 257°
2026-04-12 10:27 38.60119 -0.54033 11165 ft 270 kts 257°
2026-04-12 10:27 38.59605 -0.56337 10884 ft 268 kts 257°
2026-04-12 10:27 38.59095 -0.58599 10611 ft 267 kts 257°
2026-04-12 10:28 38.58595 -0.60857 10342 ft 265 kts 257°
2026-04-12 10:28 38.58089 -0.63120 10059 ft 262 kts 258°
2026-04-12 10:28 38.57609 -0.65351 9792 ft 261 kts 257°
2026-04-12 10:28 38.57132 -0.67585 9550 ft 261 kts 256°
2026-04-12 10:29 38.56634 -0.69821 9373 ft 262 kts 256°
2026-04-12 10:29 38.56137 -0.72051 9203 ft 263 kts 256°
2026-04-12 10:29 38.55631 -0.74302 9018 ft 262 kts 256°
2026-04-12 10:29 38.55127 -0.76539 8790 ft 262 kts 256°
2026-04-12 10:30 38.54633 -0.78740 8567 ft 257 kts 255°
2026-04-12 10:30 38.53957 -0.80853 8347 ft 260 kts 239°
2026-04-12 10:30 38.52624 -0.82394 8124 ft 263 kts 206°
2026-04-12 10:30 38.50883 -0.83113 7877 ft 264 kts 193°
2026-04-12 10:31 38.49103 -0.83618 7577 ft 262 kts 192°
2026-04-12 10:31 38.47312 -0.84163 7275 ft 262 kts 193°
2026-04-12 10:31 38.45578 -0.84759 6976 ft 261 kts 195°
2026-04-12 10:31 38.43821 -0.85390 6673 ft 260 kts 195°
2026-04-12 10:32 38.42094 -0.86034 6373 ft 259 kts 196°
2026-04-12 10:32 38.40356 -0.86682 6069 ft 258 kts 196°
2026-04-12 10:32 38.38647 -0.87315 5777 ft 258 kts 195°
2026-04-12 10:32 38.36919 -0.87949 5511 ft 254 kts 194°
2026-04-12 10:33 38.35224 -0.88295 5302 ft 246 kts 176°
2026-04-12 10:33 38.33644 -0.87664 5102 ft 233 kts 141°
2026-04-12 10:33 38.32629 -0.86158 4865 ft 220 kts 114°
2026-04-12 10:33 38.32204 -0.84362 4638 ft 208 kts 90°
2026-04-12 10:34 38.32375 -0.82595 4385 ft 199 kts 67°
2026-04-12 10:34 38.33114 -0.81181 4084 ft 193 kts 36°
2026-04-12 10:34 38.34364 -0.80784 3805 ft 191 kts 350°
2026-04-12 10:34 38.35425 -0.81769 3761 ft 199 kts 303°
2026-04-12 10:35 38.35597 -0.83520 3768 ft 207 kts 262°
2026-04-12 10:35 38.35361 -0.85335 3765 ft 206 kts 275°
2026-04-12 10:35 38.35648 -0.87070 3772 ft 199 kts 287°
2026-04-12 10:35 38.35635 -0.88823 3767 ft 206 kts 252°
2026-04-12 10:36 38.34698 -0.90147 3766 ft 208 kts 207°
2026-04-12 10:36 38.33316 -0.90726 3770 ft 210 kts 189°
2026-04-12 10:36 38.31875 -0.90658 3750 ft 205 kts 155°
2026-04-12 10:36 38.30883 -0.89498 3748 ft 196 kts 109°
2026-04-12 10:37 38.30837 -0.87856 3752 ft 185 kts 72°
2026-04-12 10:37 38.31165 -0.86252 3753 ft 187 kts 74°
2026-04-12 10:37 38.31425 -0.84641 3753 ft 187 kts 75°
2026-04-12 10:37 38.31670 -0.83019 3752 ft 187 kts 77°
2026-04-12 10:38 38.31789 -0.81351 3749 ft 188 kts 85°
2026-04-12 10:38 38.31722 -0.79679 3744 ft 190 kts 92°
2026-04-12 10:38 38.31472 -0.77980 3415 ft 202 kts 101°
2026-04-12 10:38 38.31123 -0.76287 3022 ft 197 kts 98°
2026-04-12 10:39 38.30868 -0.74621 2761 ft 189 kts 95°
2026-04-12 10:39 38.30638 -0.72997 2665 ft 182 kts 94°
2026-04-12 10:39 38.30416 -0.71422 2360 ft 181 kts 94°
2026-04-12 10:39 38.30204 -0.69909 2043 ft 168 kts 93°
2026-04-12 10:40 38.30011 -0.68480 1803 ft 157 kts 94°
2026-04-12 10:40 38.29816 -0.67109 1412 ft 157 kts 93°
2026-04-12 10:40 38.29627 -0.65758 1345 ft 150 kts 96°
2026-04-12 10:40 38.29393 -0.64485 1254 ft 147 kts 95°
2026-04-12 10:41 38.29174 -0.63225 1124 ft 144 kts 94°
2026-04-12 10:41 38.28992 -0.61990 971 ft 140 kts 92°
2026-04-12 10:41 38.28882 -0.60755 729 ft 142 kts 90°
2026-04-12 10:41 38.28734 -0.59492 501 ft 144 kts 95°
2026-04-12 10:42 38.28561 -0.58287 309 ft 136 kts 94°
2026-04-12 10:42 38.28394 -0.57094 138 ft 138 kts 94°
2026-04-12 10:42 38.28271 -0.56122 99 ft 63 kts 104°
2026-04-12 10:42 38.28223 -0.55849 96 ft 21 kts 99°
2026-04-12 10:43 38.28251 -0.55541 92 ft 9 kts 68°
2026-04-12 10:43 38.28274 -0.55465 92 ft 10 kts 69°
2026-04-12 10:43 38.28305 -0.55362 89 ft 15 kts 68°
2026-04-12 10:44 38.28344 -0.55244 83 ft 9 kts 60°
2026-04-12 10:44 38.28395 -0.55157 78 ft 14 kts 52°
2026-04-12 10:44 38.28420 -0.55044 72 ft 10 kts 80°
2026-04-12 10:44 38.28483 -0.54979 68 ft 12 kts 13°
2026-04-12 10:45 38.28576 -0.54958 66 ft 13 kts
2026-04-12 10:45 38.28638 -0.54986 68 ft 7 kts 290°
2026-04-12 10:45 38.28645 -0.55023 70 ft 1 kts 280°
2026-04-12 10:45 38.28646 -0.55026 71 ft 0 kts 280°